Theta_e
311 316 317 318 318 316 314 312 313 315 317 318 318 319 320 319 317 315 316 316 311 314 320 317 317 319 319 315 309 308 310 308 306 305 304 303 303 303 303 303 304 304 304 305 306 307 308 309 309 309 309 309 309 309 309 309 309 309 310 311 311 312 313 315 316 317 319 320 320 321 321 320 320 320 319 319 320 320 320 320 321 321 321 321 321 321
312 316 318 318 317 315 314 312 311 313 314 314 315 316 317 317 316 313 314 315 311 314 320 316 316 320 319 314 308 306 308 307 305 304 303 303 302 302 302 302 303 303 304 305 306 307 308 308 308 308 308 308 308 308 308 308 308 308 308 308 308 309 310 310 311 312 314 316 316 317 318 318 318 318 318 317 318 318 318 318 319 319 319 319 318 318
314 316 316 314 313 313 316 314 313 313 313 314 314 315 318 317 317 317 316 315 312 315 322 319 317 320 317 311 307 305 305 305 304 304 303 302 302 301 302 302 302 303 303 304 305 306 307 307 307 308 308 308 308 308 308 308 308 308 308 308 308 308 308 307 308 308 309 310 310 311 313 314 314 315 315 314 315 315 315 315 315 316 316 317 317 316
318 320 315 311 312 313 316 316 315 314 315 317 317 317 320 318 318 323 321 317 315 314 319 319 316 319 316 309 306 304 303 303 303 303 302 302 302 301 301 302 302 302 303 304 305 306 306 307 307 308 308 308 307 307 307 307 307 307 307 307 307 308 308 308 308 307 308 307 308 308 308 308 309 309 309 310 310 310 310 310 310 310 311 312 313 313
320 319 311 310 314 315 316 317 317 317 319 321 320 318 320 319 318 322 321 318 318 316 316 315 318 324 320 313 310 305 303 303 302 302 302 301 301 301 301 302 302 302 303 304 305 306 306 307 307 307 307 307 307 307 306 306 306 306 306 307 307 307 307 307 307 307 307 307 307 307 307 307 307 307 307 307 306 306 306 306 306 306 306 306 307 307
318 314 312 315 317 316 317 319 320 321 321 324 323 319 319 320 319 319 318 317 320 323 317 313 321 331 325 316 311 306 305 304 302 301 301 301 300 300 301 301 301 301 303 304 305 306 306 306 306 306 306 306 306 306 306 305 305 305 306 306 306 306 306 307 307 307 307 307 307 307 307 307 307 307 306 306 305 305 305 305 304 304 304 304 304 304
317 313 314 319 319 318 318 320 322 321 320 323 323 320 318 317 317 318 318 318 323 325 315 311 320 327 324 318 310 307 307 305 303 301 300 300 300 300 300 299 300 300 302 304 305 305 305 305 306 306 306 306 305 305 305 305 305 305 305 305 305 305 305 306 306 306 306 306 306 306 306 306 306 306 306 305 305 304 304 304 304 304 304 303 304 303
317 315 316 317 317 319 319 321 323 319 322 326 320 319 321 318 318 319 319 319 321 320 317 317 320 319 321 319 310 307 309 305 304 303 301 300 299 299 299 299 299 300 302 303 304 304 305 305 305 305 305 305 305 305 304 304 304 304 304 305 305 305 305 305 305 305 305 305 305 305 305 305 305 305 304 304 304 303 303 303 303 303 303 303 303 303
314 315 318 318 318 319 320 322 321 317 322 324 317 317 321 320 321 322 322 321 317 316 320 320 316 316 322 319 308 307 311 309 305 304 302 300 299 298 298 298 298 300 301 303 303 304 304 304 304 304 304 304 304 304 304 304 303 304 304 304 304 305 305 305 305 304 304 304 304 304 304 304 303 303 303 303 302 302 302 302 302 302 302 302 302 302
313 312 314 318 322 321 321 318 315 318 319 315 312 316 319 319 320 322 322 322 319 318 320 320 316 317 321 318 310 309 313 312 306 303 302 300 299 298 298 298 298 299 301 302 303 303 303 303 303 303 303 304 304 303 303 303 303 303 303 304 304 304 303 303 303 303 303 303 303 303 302 302 301 301 301 301 301 301 301 301 301 301 301 301 301 301
311 310 310 315 318 317 317 312 308 314 313 308 314 322 324 322 321 321 320 319 320 320 319 320 318 316 319 320 315 310 310 311 307 304 302 300 299 298 297 297 298 298 300 301 302 302 302 302 302 303 303 303 303 302 302 302 302 302 302 303 303 303 302 302 302 302 302 301 301 301 300 300 299 299 299 299 299 299 299 299 299 299 299 299 299 299
313 313 312 312 312 311 315 314 309 309 309 311 322 325 324 324 321 322 322 319 322 322 317 317 315 312 317 320 315 310 306 306 306 305 303 301 299 298 297 297 297 298 299 300 301 301 301 302 302 302 303 302 302 302 302 302 301 302 301 302 302 302 302 301 301 301 300 300 300 299 299 298 298 298 297 297 297 297 297 297 296 296 297 297 296 296
318 317 313 311 311 311 319 321 314 313 314 318 322 322 323 323 321 323 323 319 321 320 313 313 313 312 316 316 312 311 306 302 304 303 302 300 299 298 297 297 297 298 299 300 301 301 301 302 302 302 302 302 302 302 301 301 301 301 300 300 301 301 300 299 299 299 299 298 298 297 297 297 296 296 296 296 295 294 294 294 294 294 294 294 294 294
322 321 314 313 313 312 317 321 318 320 319 317 320 322 324 324 322 326 323 316 317 317 311 309 312 315 318 315 308 306 303 299 301 302 301 300 299 298 297 297 297 298 299 300 300 301 301 301 301 301 301 301 301 301 301 300 300 300 300 299 300 299 298 297 297 297 297 296 296 295 295 295 295 295 294 294 293 293 292 292 292 291 291 291 291 291
323 324 319 317 315 314 315 316 321 326 319 314 318 319 321 324 325 325 324 318 317 319 313 308 313 320 321 312 303 300 299 298 301 302 301 300 299 298 297 297 297 298 299 300 300 301 301 301 300 300 300 300 300 300 300 300 299 299 299 298 298 297 296 296 295 295 295 294 293 293 293 293 293 293 292 292 292 291 291 291 290 290 290 290 290 290
319 323 321 314 311 313 315 312 315 323 320 313 313 316 318 321 321 318 319 316 314 317 316 312 316 319 315 306 300 299 299 298 299 299 300 299 298 297 297 297 297 298 299 300 300 300 300 300 300 300 300 299 299 299 299 299 298 298 298 297 296 296 295 294 293 293 293 292 292 292 292 291 291 291 291 291 291 290 290 290 290 290 290 290 289 290
318 323 319 311 310 311 312 311 310 315 319 314 312 318 317 314 316 318 316 312 311 315 316 315 317 315 311 306 302 300 300 299 298 298 298 298 297 297 297 297 297 298 299 300 300 300 299 299 299 299 299 299 298 298 298 297 297 296 296 295 295 294 293 293 292 292 292 291 291 291 291 291 290 290 290 290 290 290 290 289 289 289 289 289 290 290
318 322 318 313 315 311 305 309 309 307 313 317 317 317 313 311 316 319 318 317 316 317 316 316 317 316 315 312 304 301 302 301 299 298 297 297 297 296 296 297 298 298 299 299 299 299 299 299 298 298 298 297 297 297 296 296 295 294 294 294 293 293 292 292 292 291 291 291 291 290 290 290 290 290 290 290 290 290 290 289 290 290 290 290 290 289
316 320 318 312 315 312 307 311 314 309 309 314 315 312 311 316 319 317 317 319 318 317 318 320 318 314 316 315 311 308 304 302 301 299 297 297 296 296 297 297 297 298 299 299 299 298 298 298 298 297 297 296 296 295 295 294 294 293 293 293 292 292 291 291 291 290 290 290 290 290 290 290 290 290 290 290 290 290 290 290 290 290 290 289 289 289
314 318 319 311 310 313 312 314 319 316 310 308 310 310 312 317 318 317 316 317 319 317 318 321 318 316 317 316 317 315 306 301 301 300 299 297 296 297 298 298 298 299 299 299 298 298 298 298 298 297 296 296 296 295 295 294 293 292 291 291 291 291 291 290 290 290 290 290 290 290 290 290 290 290 290 290 290 290 290 290 290 290 290 289 289 289
315 316 318 314 310 312 316 316 318 319 315 312 314 314 314 314 315 316 314 314 319 319 320 320 316 318 318 311 313 314 305 300 301 300 299 297 297 299 299 299 300 300 299 299 299 298 298 298 298 297 296 296 296 295 293 292 291 290 290 290 290 290 290 290 291 291 291 291 291 290 290 290 290 290 290 289 289 289 289 289 289 289 289 289 289 289
316 317 318 316 313 316 320 316 311 315 318 318 318 317 316 315 315 316 314 313 315 316 319 319 315 318 315 306 307 309 303 300 300 299 299 297 299 300 300 301 300 300 300 299 299 298 298 297 297 297 296 294 293 292 291 290 290 290 290 290 291 291 291 291 291 291 291 291 290 290 290 290 290 290 290 289 289 289 289 289 289 289 289 288 288 288
312 316 318 317 316 316 316 309 304 307 313 315 315 314 316 317 317 317 316 315 315 312 313 314 315 315 310 303 304 304 300 300 299 299 298 298 300 301 301 301 300 300 300 299 299 298 297 297 297 295 293 292 291 290 290 290 290 290 290 291 291 291 291 291 291 291 291 290 290 290 290 290 290 290 290 289 289 289 289 289 288 288 288 288 288 288
311 315 317 318 318 314 311 308 305 305 309 311 312 311 313 315 316 315 314 314 316 315 313 314 315 314 307 300 299 299 299 299 299 299 299 300 301 302 301 301 301 300 300 299 299 298 297 296 295 293 291 291 290 290 290 290 290 291 291 291 291 291 291 291 290 290 290 290 290 290 290 290 290 290 290 290 289 289 288 288 288 288 288 288 288 287
312 316 317 317 318 315 312 311 310 310 311 312 313 310 310 312 312 310 309 310 312 314 315 314 313 313 309 302 299 299 299 299 298 299 300 301 302 302 302 302 301 301 300 299 298 298 296 296 295 292 291 290 290 289 290 290 291 291 291 290 290 290 290 290 290 290 290 290 290 290 290 290 290 290 290 290 289 289 288 288 288 288 288 287 287 287
313 316 316 315 315 315 314 314 314 314 313 311 310 309 308 310 310 310 310 310 311 312 312 312 312 312 311 306 304 303 301 300 299 299 300 301 302 302 303 303 302 301 300 299 299 298 296 296 294 292 290 290 289 290 290 291 291 290 290 290 290 290 290 290 290 290 290 290 290 290 290 290 290 290 290 290 289 288 288 288 288 287 287 287 286 286
314 314 314 315 315 313 313 314 312 312 313 313 310 309 309 308 308 310 311 311 311 311 310 310 310 310 310 308 307 305 303 302 301 300 300 301 302 303 303 303 303 302 301 300 299 298 296 295 294 291 290 290 289 290 290 290 290 290 290 290 290 290 290 290 290 290 290 290 290 290 290 290 290 290 290 290 289 288 288 287 287 287 286 286 285 285
314 312 311 313 313 311 309 310 310 309 311 313 311 310 309 307 306 308 309 309 311 310 309 309 308 308 309 308 308 307 305 304 302 300 301 302 303 303 302 302 302 302 300 299 299 298 296 295 293 291 290 290 289 290 290 290 290 290 290 291 291 291 291 291 290 291 290 290 291 290 290 290 290 290 290 289 288 287 287 287 287 286 286 285 284 284
313 313 311 312 312 310 308 308 310 309 309 310 311 311 309 306 306 306 306 307 309 309 308 308 308 308 307 307 309 308 305 303 303 302 302 302 302 302 301 301 302 301 301 300 299 297 296 295 292 290 290 289 290 290 290 290 290 291 291 291 291 291 291 291 291 291 290 290 290 290 290 289 289 289 288 288 287 287 287 286 286 286 285 284 284 284
310 313 310 309 310 309 307 306 307 306 306 307 308 308 307 305 304 304 304 305 306 306 306 306 305 305 304 304 305 305 303 302 303 303 303 302 301 301 300 300 300 300 300 300 298 297 296 294 292 290 290 291 291 291 291 291 291 291 291 291 291 291 291 290 290 290 289 289 289 288 288 288 288 287 287 287 287 287 286 286 285 285 284 284 284 284
307 310 308 307 309 308 304 303 303 302 303 304 305 304 304 302 301 301 302 302 303 303 303 303 302 302 302 301 300 301 301 301 301 301 301 301 300 300 299 299 299 299 299 299 298 296 295 293 291 291 292 292 292 291 291 291 292 292 292 291 291 291 290 290 289 289 288 288 288 288 288 287 287 287 287 287 286 286 285 285 284 284 284 284 284 284
306 306 305 305 308 307 303 301 301 300 300 301 302 302 300 299 300 300 300 300 301 301 301 301 301 301 300 298 298 298 298 297 297 298 299 299 299 298 298 298 298 298 298 298 297 296 294 292 291 292 293 292 292 292 292 292 292 291 291 291 290 290 289 289 289 288 288 288 288 288 287 287 287 287 286 286 285 285 284 284 284 284 284 284 284 284
305 306 305 305 307 306 301 300 300 300 301 302 301 301 300 299 299 299 298 299 299 299 300 300 299 300 299 297 298 298 296 294 295 297 297 297 297 297 297 297 297 298 298 297 296 295 293 292 292 293 293 293 293 292 292 291 291 291 290 290 290 289 289 289 289 288 288 288 288 287 287 287 287 286 285 285 284 284 283 283 284 284 284 284 284 284
303 305 306 305 306 304 299 298 300 301 303 303 301 301 301 300 299 299 298 298 297 298 299 299 298 299 298 297 298 298 296 295 295 296 297 297 296 297 297 297 297 297 297 296 295 294 293 293 294 294 293 293 292 291 291 290 290 290 290 289 289 289 289 288 288 288 288 288 287 287 287 287 286 285 284 284 283 283 283 283 284 284 284 284 284 284
303 304 304 303 304 302 298 298 301 303 303 302 301 302 300 298 299 299 298 297 297 298 298 297 298 299 297 296 296 296 295 295 296 296 297 296 296 296 296 296 297 297 296 295 294 294 293 293 293 292 292 291 291 290 290 290 290 290 289 289 289 289 288 288 288 288 287 287 287 287 287 286 285 284 284 283 283 283 283 283 283 283 283 283 283 283
303 303 303 303 303 300 298 300 303 303 301 301 301 298 296 295 297 297 297 297 297 296 296 297 298 297 295 294 295 294 295 295 295 295 295 295 295 295 295 296 296 296 295 293 293 293 292 292 292 292 291 291 290 290 290 290 290 289 289 289 289 288 288 288 287 287 287 287 287 287 286 285 284 283 283 283 283 283 283 283 283 283 283 283 283 283
302 303 304 303 303 303 301 301 303 302 301 301 300 297 294 296 297 297 297 298 297 295 294 296 298 297 294 293 294 294 293 293 292 292 293 294 294 294 294 295 294 294 293 292 292 292 291 291 291 291 291 291 290 290 290 290 289 289 289 288 288 288 288 287 287 287 287 287 286 286 285 284 283 283 282 283 283 283 283 283 283 283 282 282 282 282
299 302 303 304 304 304 303 302 302 302 302 301 300 297 295 295 296 296 297 297 297 294 293 295 298 296 292 292 292 291 291 292 293 293 293 293 293 293 293 293 293 292 292 292 292 291 291 291 291 290 290 290 290 290 289 289 289 289 288 288 288 288 287 287 287 287 286 286 286 285 284 283 282 282 282 282 282 282 283 282 282 282 282 282 282 282
297 298 300 303 303 303 303 303 303 302 302 301 299 295 293 293 294 295 296 298 296 292 291 293 294 293 292 291 291 290 291 294 295 294 293 294 294 293 293 292 292 292 292 292 292 291 291 291 290 290 290 289 289 289 289 289 289 288 288 288 287 287 287 287 287 286 286 286 285 284 283 282 282 282 282 282 282 282 282 282 282 281 281 281 281 281
296 297 299 300 302 302 302 302 301 301 301 299 296 293 291 292 295 295 296 299 295 291 291 293 292 292 293 292 290 290 293 296 296 294 292 293 293 293 292 292 292 292 292 292 291 291 290 290 290 289 289 289 289 289 289 289 288 288 288 287 287 287 286 286 286 286 286 285 284 283 282 281 281 281 281 281 281 281 281 281 281 281 280 280 280 280
294 296 298 299 301 301 302 302 300 300 299 296 293 292 291 293 295 295 297 299 294 291 293 294 293 294 295 292 291 292 294 294 293 293 292 292 292 292 292 292 291 291 291 291 291 290 290 290 289 289 289 289 289 288 288 288 288 287 287 287 286 286 286 286 286 285 285 284 283 282 281 281 281 281 281 281 281 281 281 280 280 280 280 280 280 279
294 294 295 298 299 299 299 300 299 299 297 293 291 292 292 294 296 296 296 296 294 293 294 294 294 295 294 293 292 293 293 292 292 292 292 292 292 292 292 291 291 290 290 290 290 290 290 289 289 289 288 288 288 288 288 288 287 287 286 286 286 286 286 286 285 285 285 283 282 281 281 281 281 280 280 280 280 280 280 279 279 279 279 279 279 279
294 294 293 295 297 297 297 297 297 297 296 292 292 292 293 295 298 296 294 294 293 294 294 294 294 294 293 293 293 292 292 292 292 292 292 292 292 292 291 291 290 290 290 290 290 290 289 289 289 288 288 288 288 288 287 287 287 286 286 286 285 285 285 285 285 284 283 282 281 281 281 280 280 280 280 280 279 279 279 279 279 278 278 278 278 278
294 295 294 295 296 296 296 296 296 296 294 292 293 295 294 295 296 295 294 294 294 293 293 293 293 293 293 293 293 292 292 292 292 292 292 291 292 292 291 291 290 290 290 290 290 290 289 289 288 288 288 288 288 287 287 287 286 286 285 285 285 285 285 285 284 283 282 281 281 281 280 280 280 280 279 279 278 278 278 278 278 278 278 278 277 277
295 294 295 296 296 294 294 295 295 293 293 293 294 295 295 295 295 294 294 294 294 293 293 293 293 293 293 293 292 292 292 292 292 292 292 291 292 292 291 291 291 291 290 290 290 289 289 288 288 288 288 288 287 287 287 286 286 286 285 285 285 285 285 284 283 282 281 281 281 280 280 280 280 279 279 278 278 278 278 278 278 278 278 277 277 276
292 290 290 293 295 293 292 292 291 292 292 293 294 294 294 294 295 294 294 294 294 293 293 293 293 293 293 293 292 292 292 292 292 292 292 292 292 292 291 291 291 290 290 290 290 289 288 288 288 288 288 287 287 287 286 286 286 285 285 285 285 284 284 283 282 281 281 281 280 280 280 280 279 279 278 277 277 277 277 277 277 277 277 277 276 275
291 289 290 292 294 294 293 291 291 291 292 293 294 294 294 293 294 294 294 294 293 293 293 293 293 293 293 293 292 292 292 292 292 291 291 292 292 292 291 291 291 290 290 290 289 289 288 288 288 288 287 287 287 286 286 285 285 285 285 284 284 284 283 282 281 281 280 280 280 279 279 279 279 278 278 277 277 277 277 277 277 277 276 276 275 274
292 290 292 292 292 293 293 291 290 290 291 292 293 293 293 293 293 293 293 293 293 293 293 293 292 293 293 292 292 292 292 292 292 291 291 291 291 291 291 291 290 290 290 289 289 288 288 288 288 287 287 286 286 286 285 285 284 284 284 284 284 283 282 281 280 280 280 280 279 279 278 278 278 277 277 277 277 276 276 276 276 276 276 275 274 274
292 291 292 292 291 291 291 290 289 289 290 291 292 292 293 293 293 293 293 293 293 293 293 292 292 292 292 292 292 292 291 291 291 291 291 291 291 291 290 290 290 290 289 289 288 288 288 288 287 287 286 286 286 285 284 284 284 284 284 283 283 282 281 280 280 280 279 279 279 278 278 277 277 276 276 276 276 276 276 276 276 276 276 275 274 273
291 292 292 292 292 292 292 292 291 291 291 292 292 292 293 293 293 293 293 293 293 293 292 292 292 292 292 292 292 291 291 291 291 291 291 291 291 291 290 290 290 290 289 288 288 288 288 287 287 286 286 285 285 284 284 283 283 283 283 283 282 281 280 280 280 279 279 278 278 277 277 277 276 276 276 276 276 276 276 276 276 275 275 274 274 273
291 292 292 292 293 293 292 292 291 291 292 292 292 293 293 292 292 292 292 292 292 292 292 292 292 292 292 292 292 291 291 291 291 291 291 291 291 291 290 290 290 289 289 288 288 288 287 287 287 286 285 285 284 283 283 283 282 282 282 282 281 280 280 279 279 279 279 278 277 277 276 276 275 275 275 275 275 275 275 276 276 276 275 274 273 273
Wind_Speed
5 3 2 5 8 10 12 11 8 3 5 4 3 2 4 5 7 5 5 5 1 1 6 4 5 8 9 5 8 10 9 13 12 14 15 15 16 17 17 18 17 17 16 13 11 11 10 10 10 10 11 13 14 15 15 14 13 12 10 8 8 8 5 3 2 1 1 2 2 2 3 3 2 2 2 3 3 3 4 4 5 6 7 7 8 9
4 4 7 11 10 8 7 6 4 2 2 1 1 2 5 5 7 7 4 4 1 3 4 1 1 8 7 3 7 8 9 10 9 12 13 14 16 17 17 18 18 18 15 14 14 14 14 15 16 19 22 24 26 27 26 25 24 22 20 19 17 14 11 10 8 5 3 2 1 1 2 2 2 2 3 4 4 5 6 6 7 7 8 8 9 11
1 5 12 12 5 3 3 4 5 5 4 2 2 2 4 4 5 7 4 3 2 3 4 2 2 8 5 5 8 10 10 9 10 12 11 13 16 16 17 19 19 19 19 20 21 22 22 23 25 27 29 30 30 30 30 29 29 28 27 26 24 22 20 19 17 14 12 10 7 5 4 2 0 0 1 2 3 4 5 6 7 9 10 11 12 13
3 6 10 8 5 5 1 3 6 3 1 3 4 2 4 3 1 4 4 4 2 1 2 1 3 6 2 4 7 10 11 13 15 14 13 14 15 16 17 19 20 21 22 24 26 27 27 27 28 29 30 29 29 30 30 29 29 29 28 27 26 25 24 23 21 20 18 16 14 12 11 9 7 6 4 2 1 2 3 4 5 6 8 10 12 13
7 6 1 2 5 7 3 3 6 4 2 3 5 5 5 4 5 6 4 4 2 2 1 1 3 5 2 1 2 6 9 12 12 13 14 13 14 15 17 20 21 21 23 26 27 28 27 28 28 29 29 28 28 29 29 28 28 27 27 26 26 25 25 24 22 21 19 17 17 16 15 14 12 11 9 7 6 5 3 3 2 3 3 5 7 8
9 8 2 4 3 5 5 3 4 6 2 4 5 10 10 9 7 5 3 5 3 3 3 3 3 5 3 1 4 3 5 6 7 10 11 11 12 15 17 19 19 20 24 26 28 27 27 27 27 27 27 27 27 28 27 26 25 24 24 24 23 23 23 23 22 20 18 18 18 17 18 17 15 15 14 14 13 11 9 7 6 4 3 3 4 4
5 4 4 4 4 4 3 2 5 7 4 3 4 8 9 7 5 4 1 2 0 3 3 3 1 5 5 1 5 5 4 4 4 7 7 9 11 13 15 16 17 20 23 26 27 26 26 26 25 26 25 25 25 25 23 22 22 22 21 21 21 21 21 20 20 18 16 17 17 16 17 17 16 17 17 16 14 13 12 10 8 7 7 7 7 7
2 0 1 5 4 4 3 4 6 7 6 2 4 4 5 5 5 4 4 3 2 3 4 3 2 4 6 3 3 6 6 4 3 4 4 7 10 11 13 14 16 19 22 25 25 25 25 24 24 24 23 23 23 21 19 19 19 19 18 18 18 18 19 18 17 15 15 15 16 15 16 16 17 17 17 15 13 13 12 10 10 10 9 9 9 9
1 1 2 6 4 4 5 4 6 10 5 5 3 6 6 6 5 4 5 2 1 2 5 3 1 3 6 3 1 4 4 2 4 3 3 6 9 10 12 13 16 19 22 23 24 24 23 22 22 22 21 21 19 18 17 17 17 16 16 16 15 16 17 16 15 14 14 14 15 14 14 15 16 16 14 12 11 11 11 10 10 10 9 9 9 10
1 1 3 7 5 5 4 2 4 8 4 3 5 6 5 5 5 4 4 3 2 2 4 5 4 2 5 3 2 2 3 4 5 3 4 8 9 10 12 13 16 18 21 22 22 22 21 20 20 19 18 17 16 16 15 15 15 14 14 13 12 15 15 15 14 13 14 14 13 14 14 15 15 14 12 11 11 11 10 10 10 10 9 9 9 10
1 0 1 4 4 5 5 2 2 3 2 5 6 5 5 5 5 4 2 4 2 4 4 7 8 6 4 4 3 4 2 4 7 5 5 9 11 11 12 14 16 18 20 21 21 20 19 18 18 16 15 15 14 14 12 12 12 11 11 10 11 13 13 12 12 11 12 12 12 13 13 14 14 12 10 10 11 12 10 10 11 10 9 9 10 10
4 1 2 2 3 5 7 4 3 3 4 5 4 4 3 4 4 4 4 4 0 5 3 3 4 5 5 5 2 2 2 2 7 8 9 11 14 14 13 14 16 18 19 20 19 18 17 16 15 14 13 13 12 10 9 9 9 9 9 8 8 11 10 10 10 9 9 10 11 12 11 12 12 11 10 11 12 12 11 11 10 9 8 8 9 9
4 4 3 1 2 5 6 4 3 4 5 5 4 5 3 3 3 3 3 0 3 6 3 1 1 2 6 5 1 3 3 3 5 11 16 18 19 18 17 16 17 18 19 18 17 16 15 14 13 11 11 11 9 7 7 8 8 7 8 7 6 8 9 9 8 8 8 9 10 11 11 11 11 11 11 11 12 12 12 12 11 10 10 10 10 10
3 5 2 1 2 6 8 4 1 1 1 4 4 4 3 1 1 3 4 2 4 6 3 1 2 1 5 2 1 4 5 6 6 13 22 24 24 22 20 18 18 18 18 17 16 15 13 12 11 10 9 8 7 7 6 6 6 6 6 6 6 8 9 8 8 8 8 9 10 10 9 10 10 10 10 10 11 12 12 12 13 13 13 14 14 14
2 5 3 4 2 6 8 5 5 5 3 4 4 5 4 4 4 4 4 3 4 4 3 2 1 3 3 1 2 4 4 3 4 14 20 22 23 22 20 19 18 18 18 17 15 14 12 11 10 9 8 6 6 6 5 5 5 4 5 5 5 7 8 7 7 8 8 9 10 9 9 9 9 9 9 9 10 10 11 11 12 12 13 14 14 14
2 5 6 2 1 6 6 3 6 6 2 2 3 4 2 4 5 3 3 5 2 3 3 2 3 4 4 1 3 1 3 5 8 15 19 20 20 20 19 19 19 19 18 17 15 13 11 10 9 7 7 6 5 5 5 5 5 4 5 5 5 6 6 6 6 7 8 9 9 9 9 9 9 9 9 9 9 10 11 11 12 13 13 14 14 14
1 5 5 3 2 2 2 2 3 3 2 1 2 3 4 4 6 2 2 1 3 2 4 2 2 4 1 0 3 3 3 4 6 10 16 19 19 19 20 20 20 19 18 16 15 13 11 9 8 7 6 6 5 5 5 5 6 5 6 6 6 6 6 5 5 5 6 6 6 7 7 8 8 8 9 9 10 11 11 12 13 13 14 15 16 16
2 4 5 1 1 2 2 3 3 3 3 4 2 5 3 2 4 3 1 3 2 3 4 0 3 3 2 2 2 2 2 3 3 6 11 15 17 19 21 21 20 19 18 17 15 14 11 9 8 8 7 7 7 7 7 7 7 7 7 6 6 6 5 4 4 4 4 4 5 6 7 8 9 10 11 11 11 12 12 13 14 14 15 16 17 17
2 2 5 1 2 1 3 3 2 4 2 4 3 2 3 2 1 2 2 2 2 4 4 3 3 3 4 4 2 4 8 8 6 6 8 12 17 20 21 21 20 19 19 17 16 14 12 10 8 9 9 8 9 8 8 8 7 7 7 7 7 6 5 4 3 3 4 5 6 7 8 9 10 10 11 12 12 13 14 15 16 16 17 17 18 19
2 1 4 2 0 1 3 2 2 2 2 2 1 1 1 2 4 2 2 3 3 4 4 5 5 4 5 5 6 9 11 10 10 8 9 14 20 23 23 22 21 21 20 18 16 15 13 11 10 10 10 10 10 10 9 9 9 9 8 8 7 6 5 3 3 3 4 5 6 7 8 9 10 11 12 13 13 15 15 16 17 18 19 19 20 21
2 1 3 2 3 0 1 2 6 6 3 2 2 2 2 1 1 1 1 2 3 3 2 3 6 6 4 3 6 8 8 11 14 13 12 18 24 26 25 25 23 22 20 18 17 15 15 13 11 11 12 12 12 12 11 11 11 10 8 7 6 4 3 2 1 2 4 6 7 9 10 11 12 13 14 14 15 16 17 17 18 19 20 20 21 22
1 2 3 1 0 2 5 4 4 7 6 5 5 5 4 3 2 2 4 1 2 2 4 4 6 7 4 2 3 5 6 12 18 16 14 20 27 27 26 25 23 21 20 19 17 16 16 14 12 12 13 13 14 14 14 13 11 9 8 6 5 3 1 1 3 5 7 9 10 11 12 14 15 17 18 19 20 21 21 21 21 21 21 21 21 22
3 3 2 3 3 5 6 4 1 3 4 5 3 3 3 3 4 4 6 3 1 1 1 2 4 5 2 2 4 5 7 13 19 19 18 23 29 29 26 25 22 20 19 19 17 17 17 15 12 13 14 15 16 15 14 12 10 8 6 4 2 2 3 4 6 8 10 12 14 15 17 18 20 22 23 24 25 27 27 27 26 26 25 24 23 23
3 3 2 4 3 2 4 4 2 1 4 3 1 1 3 3 3 4 5 3 2 2 1 1 5 4 1 3 3 2 5 10 17 21 22 26 29 28 26 23 22 21 21 20 19 18 17 16 14 15 17 17 16 15 13 11 7 5 2 1 2 3 5 6 8 10 12 14 16 18 19 21 23 24 26 27 28 30 30 30 29 29 29 29 28 28
2 1 2 2 4 4 3 3 3 3 1 2 2 1 2 3 5 3 1 3 1 4 5 4 7 5 2 3 5 3 4 7 13 21 26 28 28 27 25 23 23 23 23 22 21 19 19 18 17 18 18 17 16 15 12 8 5 2 1 1 2 4 5 7 9 11 13 15 16 18 20 22 24 25 27 29 31 32 32 30 30 29 29 30 30 31
4 2 3 4 6 8 6 4 3 2 1 1 2 3 4 5 6 4 2 3 4 3 4 4 6 5 4 3 5 4 4 4 8 17 22 23 23 23 23 23 24 25 25 25 23 22 21 20 19 20 20 18 16 13 10 7 5 4 3 2 3 4 6 7 10 12 14 16 18 20 22 24 26 27 29 31 32 33 32 31 30 30 29 30 30 31
3 1 3 6 8 8 6 5 3 2 3 3 3 4 6 5 6 5 3 4 4 1 2 6 4 3 7 4 1 3 5 5 8 15 19 19 18 18 20 22 25 27 26 26 24 23 22 21 20 21 21 19 16 13 11 9 8 7 6 6 6 7 9 10 13 15 17 19 21 22 24 25 27 29 31 33 34 34 33 32 32 31 30 30 31 32
3 1 4 5 7 5 3 3 3 2 3 4 4 6 6 4 5 6 5 5 4 3 7 10 5 5 10 9 5 6 7 6 9 16 19 20 19 19 19 20 23 25 26 27 25 24 23 22 22 22 21 19 16 15 13 12 10 9 9 9 10 11 13 15 16 18 19 21 22 23 25 26 28 30 32 34 34 33 33 33 32 32 32 32 33 34
4 3 4 3 4 4 2 4 5 4 2 3 4 7 8 6 7 7 6 6 7 6 10 9 6 7 11 8 6 8 10 10 13 17 19 19 19 19 19 19 21 23 25 28 28 26 24 23 23 22 21 19 17 16 15 14 13 12 12 13 14 15 17 18 18 19 19 21 22 24 26 27 29 31 32 32 32 32 32 32 32 32 33 34 35 37
4 3 2 3 3 2 0 2 3 3 2 3 6 10 9 6 6 7 7 8 8 8 9 8 7 9 12 8 5 8 12 13 16 18 20 20 20 19 18 20 22 23 26 28 29 27 24 22 22 22 20 19 18 17 16 16 15 15 15 16 17 17 18 18 18 18 20 22 23 25 27 28 30 31 31 31 32 31 31 31 32 33 34 36 37 39
2 2 2 4 1 2 1 1 1 1 2 4 9 13 8 2 3 8 9 7 5 7 9 9 8 12 13 7 6 10 14 14 16 20 23 23 21 19 20 21 23 24 26 28 28 25 23 22 22 21 20 19 18 18 17 17 17 17 17 17 18 18 17 17 18 20 22 24 25 26 27 28 30 30 31 31 30 30 30 31 33 34 35 37 39 41
2 1 2 3 2 3 3 4 3 2 1 5 14 17 9 5 7 8 6 6 8 10 10 8 8 11 9 3 5 9 12 14 17 21 22 22 20 20 22 23 23 23 25 27 26 24 23 23 23 22 21 20 19 19 19 18 16 17 18 18 19 19 18 19 20 22 24 24 25 26 27 29 30 30 30 29 29 30 32 33 34 35 37 39 40 42
4 3 2 3 4 3 2 5 4 4 2 9 13 11 10 11 11 6 3 8 12 9 7 8 9 9 7 2 4 7 9 12 16 19 20 21 21 21 22 22 21 22 23 25 25 23 23 23 23 22 22 21 21 19 17 16 15 17 19 20 20 20 19 21 22 23 24 24 25 26 27 29 29 29 29 29 30 32 33 35 36 37 39 40 41 42
4 5 3 4 3 2 3 4 4 1 6 9 4 4 8 10 9 7 8 10 9 7 7 8 6 6 6 6 8 10 10 12 16 19 20 19 19 19 20 19 18 19 21 23 23 22 22 22 21 21 20 20 19 18 16 16 17 19 20 21 21 21 21 22 22 23 23 24 26 27 28 29 29 29 29 30 32 34 34 35 37 38 40 41 42 43
5 4 3 3 2 2 3 4 3 7 8 4 1 4 7 7 9 9 8 8 8 9 9 8 7 8 11 15 16 15 14 14 16 18 17 16 17 17 17 18 18 19 21 21 22 22 22 21 21 20 20 20 18 17 17 18 20 21 21 22 21 21 21 22 23 24 25 26 27 28 29 29 29 30 31 32 33 34 35 36 38 39 40 41 42 43
6 4 2 2 2 1 2 4 7 5 3 2 3 2 2 4 5 4 5 9 10 10 9 8 10 12 16 18 16 13 14 13 13 13 12 13 15 15 16 18 19 20 21 21 21 21 21 21 21 20 20 19 18 18 19 21 22 22 22 22 21 22 23 23 24 25 26 27 29 29 30 29 30 31 32 33 34 34 36 37 38 39 41 41 42 43
4 5 2 2 3 2 3 6 6 4 7 10 8 3 5 5 5 5 4 9 8 8 10 9 10 13 14 14 12 10 8 6 5 8 12 14 15 16 16 17 18 19 19 18 18 18 18 19 19 18 19 19 19 21 22 23 23 23 23 22 22 23 24 25 26 27 28 29 30 30 30 30 30 32 33 33 34 35 36 37 39 40 41 42 43 44
1 3 4 5 5 4 4 6 5 4 9 10 6 3 6 9 9 7 3 7 5 9 16 13 10 11 10 7 7 6 5 2 3 7 13 16 17 17 16 17 18 17 17 16 15 16 17 18 18 18 19 20 21 22 23 24 24 24 24 23 23 24 26 26 27 28 29 30 30 30 30 30 31 33 33 34 34 35 37 38 39 40 40 42 43 44
1 1 2 4 5 4 5 5 5 7 8 6 5 2 3 9 10 8 4 5 5 10 18 15 10 11 10 9 11 10 7 3 4 9 13 15 18 20 19 19 18 16 15 14 15 16 17 17 17 18 20 21 22 23 24 25 25 25 24 24 25 26 27 28 29 29 30 31 30 30 30 31 32 33 34 34 35 36 37 38 39 40 40 42 43 44
1 1 1 4 5 7 8 6 4 5 5 4 5 3 4 10 12 10 3 7 6 10 17 17 15 15 14 13 15 11 6 6 7 10 14 13 16 20 20 17 15 13 14 15 16 16 16 16 17 19 20 22 23 24 25 26 26 26 26 26 26 27 28 29 30 30 31 32 30 30 31 32 33 33 33 34 35 36 38 38 39 40 41 42 43 44
1 0 2 5 6 8 9 6 4 5 5 5 7 10 13 12 8 4 4 6 8 13 16 18 18 18 16 16 16 12 12 13 12 15 16 14 15 18 18 15 14 14 15 17 17 17 18 18 19 19 20 22 23 25 26 27 27 27 27 27 27 29 30 30 31 31 32 32 30 31 32 32 32 33 33 34 35 37 38 38 38 40 41 42 43 44
1 1 2 4 4 4 5 4 4 6 5 8 11 14 16 9 2 6 5 5 10 13 14 16 18 17 16 18 18 17 16 15 15 17 19 18 17 18 18 16 16 16 18 19 19 20 21 20 19 20 21 23 24 26 27 28 28 28 27 27 28 30 31 31 32 32 32 31 31 31 32 32 32 33 34 34 35 37 38 37 38 39 40 42 43 44
5 4 3 4 3 2 2 4 5 7 5 18 18 8 6 6 6 7 7 7 10 12 12 16 18 17 17 19 19 18 16 14 16 19 21 20 19 19 18 17 16 18 19 20 21 22 22 21 20 20 22 23 25 27 28 28 29 28 28 28 29 31 32 32 32 32 32 31 32 32 32 32 33 33 34 35 35 36 37 37 37 39 40 41 42 43
4 5 3 3 3 4 4 7 5 2 9 25 21 7 11 18 18 13 10 10 12 12 13 16 17 18 19 20 19 18 16 16 18 20 22 22 22 21 20 19 18 20 21 22 23 23 22 22 21 21 23 24 26 27 28 29 29 29 28 30 31 32 32 32 32 32 31 31 32 32 32 33 34 34 34 34 35 36 37 37 37 38 39 40 41 42
7 7 6 4 4 5 5 7 4 6 14 26 23 15 20 26 25 22 18 17 16 15 15 15 16 19 21 22 20 18 18 18 19 21 23 24 25 25 23 21 22 23 24 24 25 24 23 22 21 22 24 25 27 28 29 29 29 29 29 30 32 32 33 33 32 31 31 31 32 32 33 34 34 34 35 34 35 36 36 36 37 38 39 39 39 40
6 5 4 2 3 4 5 4 4 7 15 26 25 21 21 22 24 25 26 25 22 19 19 19 20 21 21 21 22 21 21 21 21 22 23 25 27 28 25 24 25 26 26 27 27 25 23 22 22 23 25 27 28 29 29 29 29 30 30 31 32 33 33 32 31 31 31 31 32 32 33 35 35 35 35 34 34 35 35 36 36 38 38 38 38 38
5 6 6 3 3 4 3 3 7 10 16 24 26 25 24 23 25 27 28 27 24 22 22 22 22 24 23 22 22 23 23 23 23 23 23 25 28 29 27 26 27 28 28 29 27 25 23 22 23 25 26 28 29 29 29 29 29 30 31 31 32 32 32 31 31 31 31 31 32 32 34 35 36 36 35 35 34 34 34 34 35 36 37 37 36 36
4 7 7 6 6 4 2 5 10 12 13 18 25 27 26 27 28 28 27 27 25 23 24 24 24 24 25 25 25 25 25 26 25 24 23 24 27 28 28 29 29 29 30 29 27 24 23 23 24 25 27 28 29 29 29 28 29 30 30 31 31 32 31 30 30 31 31 31 32 33 34 35 36 36 35 35 34 33 34 33 33 35 36 35 34 34
5 5 6 4 4 2 2 6 8 5 6 14 23 28 29 29 30 29 28 28 27 27 27 27 26 26 26 27 28 27 27 28 27 25 24 25 26 27 27 27 28 29 31 29 26 24 23 23 25 26 27 29 30 30 29 28 29 30 30 30 31 31 30 30 30 31 31 31 32 33 34 35 35 34 34 34 34 33 33 32 32 33 35 34 31 30
6 5 4 4 2 1 3 11 13 6 4 14 23 29 31 31 30 30 29 30 30 30 30 29 29 29 29 30 30 30 30 30 29 27 26 26 26 26 25 24 26 29 31 29 25 23 23 24 25 27 28 29 30 29 28 28 28 29 29 30 30 29 29 30 30 31 31 31 32 33 34 34 33 33 32 33 34 34 34 31 29 29 32 33 30 26
14 11 6 6 5 8 13 20 20 10 8 17 26 28 28 27 27 30 30 30 31 31 30 31 31 31 31 31 31 31 30 29 28 28 28 28 27 26 24 24 25 28 30 28 24 23 23 24 25 27 28 29 29 28 27 27 27 27 28 28 28 28 28 29 30 31 31 32 32 33 33 33 32 31 31 32 33 34 34 34 31 27 27 29 29 26
Wind_Direction
161 168 179 209 219 215 212 206 212 196 129 146 145 165 217 238 269 254 243 269 184 205 277 248 234 266 274 304 2 4 45 73 80 86 85 87 86 85 85 82 81 80 81 88 93 93 92 86 82 81 81 83 84 82 81 80 78 75 74 73 70 69 67 69 78 99 159 179 181 188 198 201 189 194 233 241 227 225 227 227 231 238 245 247 246 245
145 190 223 223 221 217 209 198 214 235 139 140 156 266 272 243 262 264 247 281 146 166 264 300 252 272 279 346 15 32 61 55 61 84 86 88 89 88 87 86 87 89 95 101 100 100 99 96 95 94 92 90 87 85 83 81 80 79 80 79 77 77 78 78 74 70 74 94 139 205 216 220 221 226 245 253 254 257 254 249 248 247 250 251 251 252
166 227 239 234 207 112 94 136 174 212 218 212 164 229 271 245 271 288 293 329 51 158 262 340 313 280 305 26 30 47 66 63 74 91 92 94 93 91 91 92 96 99 102 103 102 102 101 100 99 95 92 89 87 86 84 82 81 81 80 79 79 79 79 78 77 76 76 75 73 69 71 69 37 257 280 278 273 275 275 271 265 260 256 255 256 257
206 243 252 240 176 156 169 117 133 145 186 187 157 173 253 249 273 284 303 343 29 163 255 275 272 279 313 65 47 52 74 79 82 91 92 94 95 96 100 101 103 103 101 102 102 102 102 101 98 95 92 90 89 87 84 82 80 79 79 78 78 78 77 77 76 76 76 76 76 76 78 78 80 83 75 55 28 326 304 294 282 272 263 260 260 259
228 234 255 81 141 167 169 119 130 142 232 242 199 199 236 241 214 228 285 330 338 357 4 25 313 288 268 168 92 74 81 78 79 86 85 88 97 104 108 107 107 105 103 104 103 103 103 101 98 95 94 91 88 85 82 81 79 78 78 77 77 76 76 75 74 74 75 77 78 80 83 84 87 89 90 89 81 66 37 12 347 317 288 275 270 267
250 240 172 74 88 133 139 157 171 166 201 294 233 209 222 232 224 229 316 358 358 339 346 29 340 294 305 199 173 134 78 66 69 75 80 91 102 108 109 108 109 107 105 105 104 104 102 100 98 96 93 90 86 83 81 80 79 79 79 79 79 78 77 76 75 75 75 77 79 80 83 85 87 89 87 82 77 73 64 52 42 29 6 344 329 312
256 249 205 200 192 159 148 235 222 174 138 313 250 204 213 222 219 219 176 70 269 260 298 45 19 280 303 241 188 155 98 79 65 63 80 100 106 111 112 112 112 109 107 107 106 105 103 100 98 94 91 88 85 83 82 82 82 81 81 81 81 81 81 80 80 80 79 79 80 79 80 82 83 82 79 75 73 72 67 61 57 52 43 36 31 23
217 339 174 188 184 182 208 255 225 159 124 255 247 152 158 176 190 194 149 145 226 263 316 12 90 271 284 268 195 140 115 91 75 70 86 110 117 119 120 120 117 113 111 110 108 106 103 100 96 93 90 87 85 85 84 83 81 81 81 81 82 83 84 84 84 84 82 80 79 78 77 79 79 79 79 78 76 75 73 71 68 62 57 54 52 51
166 96 194 161 139 186 212 236 193 155 149 248 218 112 120 144 149 123 107 109 350 6 307 295 116 262 270 276 116 131 139 166 166 164 152 139 137 133 131 128 121 117 114 111 109 106 102 99 96 93 91 89 87 86 83 80 78 78 79 81 82 84 84 85 84 83 81 79 79 78 75 76 78 78 80 81 81 79 77 75 70 64 59 56 57 59
104 177 199 149 145 204 211 265 180 164 190 209 132 94 72 75 78 73 92 95 28 339 247 217 171 231 273 273 165 176 236 213 180 184 188 165 154 146 141 135 127 120 116 113 110 107 103 100 97 94 93 91 88 84 80 77 77 76 78 79 81 83 84 84 82 81 81 80 79 78 76 77 78 80 82 85 82 77 72 70 67 61 54 49 49 52
309 26 199 154 176 183 145 77 88 130 148 134 104 58 35 31 42 46 59 80 37 291 233 199 189 191 262 282 194 192 251 184 158 164 196 182 169 162 152 143 133 125 120 117 113 110 106 103 101 99 97 94 89 85 82 79 78 77 77 75 76 83 85 82 80 78 78 79 77 76 77 78 80 80 80 78 76 71 67 64 60 55 50 45 43 42
332 303 256 222 187 136 104 70 46 59 86 104 83 60 34 339 9 22 358 47 115 261 258 225 202 175 229 271 243 244 308 181 170 170 182 185 178 170 160 151 140 132 126 122 118 114 111 109 108 106 101 97 95 92 88 84 81 78 78 72 71 82 83 77 74 71 70 72 70 69 70 69 68 65 60 58 59 58 56 55 53 50 46 40 37 34
311 248 266 328 195 159 113 69 21 16 46 81 91 87 66 325 356 353 311 37 232 253 271 256 152 177 237 247 277 288 306 290 229 186 175 176 175 171 165 157 147 139 133 127 124 120 118 117 114 112 108 105 106 101 95 91 85 81 82 75 68 79 81 74 70 66 64 65 64 62 59 58 55 48 44 41 41 40 37 36 32 27 24 20 18 18
299 297 314 93 242 194 158 138 193 273 101 136 141 128 127 121 51 297 275 274 274 272 288 270 141 247 271 271 248 267 289 295 249 190 177 172 169 168 165 160 153 145 139 134 131 128 125 124 120 117 114 112 110 106 102 99 90 84 85 78 71 81 81 74 70 65 61 61 61 57 54 52 48 42 38 34 32 30 25 22 16 13 12 9 8 8
227 306 236 184 224 183 176 178 165 142 140 172 156 136 145 149 164 226 230 221 262 285 299 297 167 198 233 265 262 261 306 332 175 169 169 168 168 167 165 163 158 151 147 143 140 138 134 129 125 121 117 115 111 109 112 109 102 98 95 89 87 90 86 78 72 66 62 60 57 53 50 48 44 40 36 32 28 23 18 14 8 5 3 1 1 360
184 261 252 261 77 153 175 193 133 109 112 214 120 112 161 175 171 211 210 180 193 298 294 224 215 221 194 222 310 333 48 67 122 148 157 164 169 169 169 168 163 157 154 152 150 147 141 134 131 129 128 128 127 128 132 128 125 124 117 114 112 105 97 86 77 67 60 56 49 44 40 37 34 31 26 22 16 11 8 4 358 355 353 352 349 347
169 265 283 351 22 147 153 172 133 131 191 167 120 181 218 169 137 147 265 60 84 261 269 198 235 290 304 284 348 37 72 79 112 145 158 167 172 174 176 173 168 164 160 159 159 156 149 142 142 147 148 151 151 151 154 149 145 141 135 134 127 116 109 96 81 70 61 51 38 29 25 21 17 13 9 6 2 358 355 349 345 343 340 337 335 334
181 264 275 124 186 268 66 99 65 48 128 127 176 211 190 118 99 105 244 340 31 246 269 269 213 259 266 255 346 31 183 187 170 171 171 175 179 183 183 178 173 169 166 167 169 166 160 154 158 166 167 169 168 168 166 157 152 149 146 144 138 132 126 114 97 80 62 44 26 15 10 6 1 359 356 354 349 345 340 334 330 329 327 326 324 324
152 268 282 131 164 273 40 90 54 5 62 127 184 191 120 149 191 98 162 223 253 250 276 296 263 238 214 215 215 210 208 199 193 193 190 190 191 191 189 184 179 176 175 177 176 175 171 168 176 180 180 181 177 176 175 169 168 167 162 157 151 146 137 122 100 74 49 30 17 4 358 353 349 347 344 341 338 333 328 324 321 320 319 319 318 317
121 214 283 355 37 293 36 80 178 268 343 70 105 8 62 166 180 161 154 176 212 244 266 292 297 271 233 205 186 204 201 181 180 194 201 199 195 194 191 186 185 184 183 183 183 183 182 182 190 191 190 192 189 190 189 182 177 169 161 154 148 140 129 113 87 64 36 17 7 355 349 344 340 339 336 332 330 326 323 320 318 316 314 314 314 313
90 199 255 334 343 240 160 201 190 188 193 157 174 223 249 214 155 223 233 130 151 196 220 265 279 268 253 198 186 207 195 177 186 193 192 194 195 194 191 188 189 189 188 189 189 190 191 194 201 199 198 200 195 190 184 176 171 166 159 153 147 141 133 118 52 8 353 350 349 344 341 338 334 332 330 329 328 325 324 321 318 315 312 312 312 311
156 185 215 240 284 197 225 242 200 186 179 165 184 203 200 185 147 240 258 211 125 176 181 212 263 269 258 216 211 215 191 189 196 189 179 188 193 193 193 193 195 194 194 196 197 198 200 204 209 205 199 194 185 179 175 172 172 170 167 166 165 171 193 292 315 324 328 331 334 333 333 332 331 329 328 329 329 328 327 324 321 318 315 313 312 311
123 119 197 243 216 209 247 283 235 195 153 130 173 190 164 154 140 190 236 231 172 231 140 144 257 266 256 256 268 248 217 203 196 184 174 185 191 193 195 198 199 201 203 203 204 207 208 210 213 204 193 186 180 178 177 175 176 177 181 190 205 256 307 321 322 325 327 329 331 331 331 331 330 329 328 328 329 328 327 326 323 321 319 318 317 316
98 106 190 267 303 325 311 331 358 44 101 118 247 152 141 163 147 175 211 177 162 229 136 144 250 250 307 321 323 273 209 190 187 182 178 185 193 197 200 202 204 207 210 210 211 213 212 212 212 201 192 188 183 180 178 175 177 183 194 259 321 333 333 329 327 329 329 329 329 326 326 326 326 325 324 324 326 326 325 323 321 321 320 319 319 319
175 148 140 231 299 317 324 338 335 336 40 183 241 182 151 128 107 108 134 120 196 218 171 199 249 248 287 343 17 53 134 158 180 184 182 187 195 201 203 205 210 213 214 213 214 214 213 212 211 202 195 191 186 180 175 172 172 162 128 344 329 328 325 319 319 321 320 319 318 317 316 317 317 317 317 317 319 320 319 318 317 317 317 316 316 316
175 181 143 183 238 247 242 230 225 259 247 201 229 213 191 158 148 152 144 165 223 223 165 208 252 268 300 351 40 65 119 143 183 190 190 193 200 207 210 212 217 218 217 217 217 216 215 216 213 204 197 193 186 179 176 175 176 174 186 239 274 287 292 298 303 306 308 307 307 307 308 308 308 309 310 311 313 314 314 314 314 314 314 313 313 313
123 192 190 203 233 241 231 230 213 153 165 202 222 211 203 188 163 142 134 186 203 198 230 235 224 270 289 285 125 161 174 173 188 195 201 204 206 214 221 224 226 225 223 222 220 218 217 217 212 204 199 193 185 183 186 188 194 200 216 241 260 274 282 289 294 295 297 297 298 298 299 300 302 303 305 306 307 308 309 310 311 311 311 310 310 310
97 250 229 215 243 245 181 200 203 163 210 207 206 221 215 187 152 155 190 203 167 175 252 247 207 223 263 258 210 196 201 199 200 200 206 211 215 224 232 234 233 230 226 224 221 219 218 215 209 202 197 193 189 192 197 201 210 219 232 249 263 274 280 283 285 287 288 290 291 293 294 295 296 297 299 300 303 305 306 308 308 308 308 308 308 308
125 239 235 186 248 255 162 190 192 180 228 221 217 235 225 193 177 184 211 209 185 210 254 258 223 224 251 249 200 193 201 207 212 212 215 223 232 241 245 241 239 237 231 225 221 219 217 212 205 198 195 194 196 202 207 212 222 232 243 256 264 270 273 276 279 282 286 288 290 291 292 293 293 294 296 298 300 302 303 304 304 305 305 306 307 307
138 224 201 158 245 276 176 252 221 173 226 260 248 245 236 213 193 190 211 221 217 236 261 271 263 254 255 248 213 215 221 222 228 229 231 241 251 256 253 246 245 245 237 228 221 217 215 209 202 198 197 201 205 210 215 222 231 242 249 256 261 264 267 272 277 284 289 292 293 294 295 295 296 296 298 299 300 300 300 301 302 303 304 305 306 307
156 197 133 128 227 295 227 270 20 112 239 264 263 257 246 215 219 221 223 226 238 255 255 257 264 263 261 248 225 241 236 227 234 238 240 247 253 254 253 250 249 247 238 227 219 215 211 205 200 201 205 209 214 219 225 231 239 246 251 254 257 260 265 272 282 291 295 297 298 299 299 298 298 297 298 298 298 298 298 299 301 302 303 305 305 305
171 195 55 102 194 251 209 165 139 74 349 265 263 260 240 209 232 234 214 204 217 231 241 248 252 257 263 227 188 231 226 214 225 236 241 250 253 251 251 249 248 246 235 223 215 212 209 205 204 209 213 217 223 226 230 235 240 247 251 253 255 259 267 278 289 295 297 297 299 300 300 300 298 298 297 296 297 297 299 300 302 303 304 305 305 305
159 157 114 149 205 239 174 156 135 63 342 262 259 249 226 226 235 233 222 221 215 205 214 230 234 247 266 256 207 233 223 216 232 241 247 256 256 250 247 245 247 245 230 218 212 209 207 209 213 219 222 225 228 227 228 233 240 248 253 254 257 264 275 285 291 295 296 298 301 302 302 301 299 297 296 296 297 299 300 302 303 304 305 306 306 307
161 161 172 181 195 205 155 120 99 125 247 254 238 162 200 218 209 207 233 233 210 188 203 225 246 262 261 245 238 243 240 240 251 257 260 261 256 251 247 243 243 236 220 212 211 210 212 217 221 223 224 224 222 221 226 236 245 252 255 258 262 270 280 287 292 295 297 300 303 304 303 301 299 297 297 297 299 300 302 303 304 306 307 307 308 308
170 175 186 175 158 176 141 114 177 226 236 244 143 174 206 191 170 195 239 247 219 210 218 232 252 252 242 241 242 249 260 266 269 272 271 262 250 246 244 237 226 217 211 209 211 214 218 222 222 220 219 218 218 225 238 249 255 258 258 261 267 274 283 290 294 297 299 301 304 304 303 301 298 297 297 298 300 301 303 304 306 307 308 309 309 309
170 173 169 156 154 138 129 175 217 248 283 258 237 213 160 124 134 174 264 264 236 215 208 220 235 240 242 247 251 261 273 277 276 270 257 242 236 233 231 227 217 210 211 212 215 220 223 224 223 221 221 223 230 243 255 261 262 260 259 262 269 277 286 292 296 298 300 302 304 303 301 299 297 296 298 300 301 302 304 306 307 309 309 309 309 309
169 165 174 205 201 197 211 223 240 305 299 267 256 205 155 162 154 154 236 263 243 198 192 206 230 242 243 249 262 269 264 268 279 250 223 217 224 222 217 216 214 214 219 222 224 228 226 224 224 226 231 238 249 258 263 264 261 258 259 263 271 280 288 294 297 299 301 302 302 302 300 298 297 298 299 301 302 304 306 307 308 309 309 309 309 309
222 184 193 214 220 207 220 244 251 256 260 256 246 192 177 184 173 152 196 275 263 200 198 200 219 238 241 246 247 221 180 162 289 247 222 219 224 223 216 217 221 225 229 227 222 218 217 221 227 235 243 250 257 261 262 260 258 256 258 265 274 283 290 295 297 299 301 301 301 301 299 298 299 300 301 303 304 306 307 308 308 309 309 309 309 310
308 326 217 219 225 210 218 239 232 237 255 243 209 215 175 170 157 111 72 293 268 206 200 199 211 232 234 213 187 162 142 160 248 254 247 240 237 235 231 229 228 229 227 223 219 217 221 229 236 243 250 256 260 261 260 258 256 255 259 267 276 285 291 295 298 300 300 301 301 300 299 300 301 302 303 305 306 307 307 308 309 309 310 310 310 310
170 6 242 220 221 218 227 238 236 248 263 215 192 201 136 141 130 94 48 271 245 195 194 196 205 220 221 197 171 156 167 202 234 274 282 273 253 241 234 229 226 227 227 225 225 228 235 244 249 254 259 261 262 261 259 257 256 257 263 272 280 288 293 296 298 299 300 300 301 300 301 302 303 304 305 306 307 307 307 308 309 310 310 310 310 310
201 222 222 227 229 225 227 239 258 257 241 195 169 151 132 119 113 131 223 232 193 183 190 196 205 214 211 191 178 187 219 233 255 279 284 278 256 234 224 222 226 231 234 233 235 241 249 255 259 262 264 263 262 261 259 258 258 261 268 277 285 291 295 297 298 299 300 301 301 302 303 304 304 305 306 306 306 307 308 309 310 310 311 311 311 311
159 110 238 233 229 230 235 241 269 272 228 162 149 148 140 125 165 219 208 176 175 186 194 199 205 212 212 208 207 218 238 253 268 272 271 268 252 229 220 226 233 239 242 243 246 250 253 256 259 262 264 265 264 263 261 260 261 265 273 281 288 293 296 297 298 299 300 301 302 303 305 305 305 305 306 306 306 307 308 310 310 311 311 311 311 311
166 156 213 230 186 152 232 217 237 272 186 143 134 132 156 179 218 214 193 189 200 208 211 211 215 221 225 228 228 233 247 264 271 271 268 259 242 228 227 236 247 255 256 255 255 255 254 256 260 264 267 267 266 265 263 263 265 270 278 286 291 294 296 297 298 299 300 301 303 304 305 305 305 306 306 306 307 308 309 311 311 311 311 311 311 310
182 166 182 231 190 155 196 212 207 251 161 153 149 165 205 210 225 230 220 227 234 234 230 228 234 240 238 237 237 240 253 267 271 272 268 253 237 230 233 243 253 258 259 257 257 254 252 254 260 264 266 266 266 265 265 266 269 275 282 288 292 294 295 296 297 298 300 302 304 305 305 305 306 306 307 308 308 309 310 311 311 311 311 311 311 311
220 196 174 202 207 175 205 222 170 120 158 171 182 205 211 215 230 237 236 243 246 246 246 245 250 254 248 241 238 242 256 269 273 273 270 260 246 236 238 250 257 259 258 256 253 250 250 254 261 264 265 265 265 265 265 267 272 278 284 289 291 292 294 296 297 298 300 302 304 305 305 306 306 307 308 309 309 309 310 311 311 311 311 311 312 312
232 205 159 158 239 236 244 231 138 140 177 187 200 220 224 226 235 236 236 241 244 249 255 255 260 266 259 245 239 244 256 268 273 272 270 266 256 244 243 253 258 256 254 251 247 246 249 255 261 264 265 264 263 263 266 269 274 280 285 288 289 292 294 296 297 299 301 303 304 305 306 306 307 308 308 309 310 310 310 311 312 312 312 312 313 313
251 200 187 198 222 227 245 200 176 195 202 197 203 220 228 232 236 236 237 242 245 252 256 257 263 267 261 251 249 256 264 270 270 269 268 267 260 251 251 259 261 257 253 248 244 245 250 257 262 264 264 263 263 264 266 270 275 280 284 287 289 291 294 295 297 299 302 304 305 306 306 307 307 308 309 309 309 309 309 311 313 312 312 313 314 314
226 188 199 223 213 192 232 233 214 219 223 212 211 219 227 234 239 240 242 247 252 255 256 257 261 262 259 258 260 264 270 272 267 265 266 266 263 260 262 267 265 258 250 245 242 245 252 258 262 263 262 262 262 264 267 272 277 281 284 287 290 291 293 295 297 300 302 304 306 306 306 307 307 308 308 309 309 308 310 312 313 312 311 313 316 317
195 183 189 197 201 196 289 260 237 243 265 237 223 224 232 239 242 244 247 251 253 254 255 256 259 261 261 263 264 267 271 271 267 264 265 267 266 265 265 267 266 257 248 243 242 248 255 259 260 261 261 260 261 265 269 274 278 281 284 288 290 292 294 296 299 301 303 304 306 306 306 306 306 307 308 308 308 308 310 313 314 314 312 314 317 319
191 216 196 137 150 204 228 230 225 215 251 245 236 235 240 243 245 246 250 253 254 256 258 258 260 263 263 264 267 269 271 271 268 266 267 269 270 267 263 265 264 255 244 241 245 251 256 258 259 259 259 259 261 264 269 273 277 281 284 288 290 292 295 297 300 302 303 305 306 306 305 305 305 307 308 308 308 309 310 312 314 314 313 313 316 319
214 224 199 147 196 236 236 234 230 218 233 253 254 252 250 249 248 247 250 255 258 260 262 261 262 266 267 267 269 270 271 271 270 270 269 270 270 267 263 264 263 252 243 242 249 255 259 261 261 260 260 260 262 266 269 273 277 281 284 287 289 292 294 297 300 301 303 305 305 304 304 304 305 307 308 308 309 311 311 312 312 312 312 313 316 320